Miscellaneous Local Product
Issued by NWS North Platte, NE

Home | Current Version | Previous Version | Graphics & Text | Print | Product List | Glossary On
Versions: 1 2 3 4 5 6 7 8 9 10 11 12 13 14 15 16 17 18 19 20 21 22 23 24 25 26 27 28 29 30 31 32 33 34 35 36 37 38 39 40 41 42 43 44 45 46 47 48 49 50
757
AXUS43 KLBF 181810
MISLBF


WESTERN AND NORTH CENTRAL NEBRASKA HOURLY WEATHER ROUNDUP
NATIONAL WEATHER SERVICE NORTH PLATTE NE
100 PM CDT WED APR 18 2018

NOTE: "FAIR" INDICATES FEW OR NO CLOUDS BELOW 12,000 FEET WITH NO
SIGNIFICANT WEATHER AND/OR OBSTRUCTIONS TO VISIBILITY.

NOTE: STATIONS NOT REPORTING VARIABLES SUCH AS SKY/WEATHER OR
PRESSURE ARE PROVIDED BY RAWS AND APRS NETWORKS AND ARE NOT UNDER
NATIONAL WEATHER SERVICE QUALITY CONTROL.

...OBSERVATIONS IN AND NEAR THE EASTERN PANHANDLE OF NEBRASKA...

CITY           SKY/WX    TMP DP  RH WIND       PRES   REMARKS
PINE RIDGE     MOSUNNY   52  33  48 N13G26    30.17S
GORDON         MOCLDY    49  34  56 NW22G32   30.15F
CHADRON        CLOUDY    51  28  41 N16       30.18R
ALLIANCE       MOSUNNY   51  29  42 NW24G31   30.17S
SIDNEY         MOSUNNY   52  24  33 NW29G35   30.22R
CRESCENT LAKE    N/A     50  29  44 N22G32      N/A
$$

...OBSERVATIONS IN NORTHERN NEBRASKA AND FAR SOUTHERN SOUTH DAKOTA...

CITY           SKY/WX    TMP DP  RH WIND       PRES   REMARKS
WINNER         LGT SNOW  35  31  85 NW10      30.17R FOG     WCI  27
VALENTINE      CLOUDY    38  33  82 NW13G22   30.16R WCI  30
AINSWORTH      CLOUDY    35  33  90 NW18      30.15R WCI  24
O`NEILL        CLOUDY    37  34  90 N18G25    30.11R FOG     WCI  26
THEDFORD       CLOUDY    42  34  71 N21G28    30.16R
BROKEN BOW     PTSUNNY   43  32  65 NW22G32   30.11S
ORD            CLOUDY    38  33  82 NW24G33   30.10R WCI  27
ALBION         LGT RAIN  37  34  88 NW21      30.07R WCI  26
VALENTINE NWR    N/A     36  31  82 NW15G23     N/A  WCI  27
HALSEY           N/A     40  31  70 NW10G23     N/A  WCI  33
BUTTE            N/A     32  31  96 N10         N/A  WCI  24
CHAMBERS         N/A     37  31  79 W6          N/A  WCI  32
EWING            N/A     34  33  95 N15         N/A  WCI  24
$$

...OBSERVATIONS IN SOUTHWEST NEBRASKA AND FAR NORTHEAST COLORADO...

CITY           SKY/WX    TMP DP  RH WIND       PRES   REMARKS
WRAY           FAIR      55  23  28 N26G35    30.21S
HOLYOKE        FAIR      55  27  33 N30G40    30.20R
IMPERIAL       MOSUNNY   55  28  35 NW25G40   30.17R
OGALLALA       SUNNY     55  29  38 NW30G37   30.16S
NORTH PLATTE   CLOUDY    50  32  50 N26G38    30.15R
MCCOOK         PTSUNNY   55  31  39 N26G41    30.14R
LEXINGTON      CLOUDY    47  32  55 NW23G32   30.14R
STAPLETON        N/A     44  33  65 NW9G17      N/A
GOTHENBURG       N/A     42  30  62 NW18        N/A
CALLAWAY         N/A     42  34  72 NW24        N/A
$$

...OBSERVATIONS IN CENTRAL LINCOLN COUNTY AREA...

CITY           SKY/WX    TMP DP  RH WIND       PRES   REMARKS
N.P. AIRPORT   CLOUDY    50  32  50 N26G38    30.15R
N.P. DOWNTOWN    N/A     48  33  57 N12G25      N/A
N.P. SOUTHEAST   N/A     48  32  54 N14G32      N/A
N.P. HILLCREST   N/A     48  33  57 NW26G38     N/A
$$

...OBSERVATIONS ACROSS THE ROCKIES AND WESTERN HIGH PLAINS...

CITY           SKY/WX    TMP DP  RH WIND       PRES   REMARKS
RAPID CITY     PTSUNNY   51  29  42 N25G36    30.16S
SCOTTSBLUFF    MOSUNNY   53  28  38 NW25G32   30.23R
CHEYENNE       SUNNY     43  12  28 NW18G25   30.25R
DENVER         MOSUNNY   49  10  20 NW15G23   30.26S
BERTHOUD PASS  FAIR      12   1  62 W12G21    30.27R WCI  -2
ASPEN          SUNNY     39  -3  17 E6        30.26F WCI  35
STEAMBOAT      FAIR      35  16  46 SE5       30.31F WCI  30
LARAMIE        SUNNY     39  15  37 NW14G22   30.24R WCI  31
CASPER         SUNNY     39  27  62 SW13      30.26S WCI  31
$$

...OBSERVATIONS ACROSS THE NORTHERN PLAINS...

CITY           SKY/WX    TMP DP  RH WIND       PRES   REMARKS
BISMARCK       PTSUNNY   48  35  60 N9        30.18R
FARGO          FAIR      47  31  53 N20G25    30.09S
PIERRE         CLOUDY    35  34  96 NW12      30.15R WCI  27
SIOUX FALLS    LGT SNOW  32  30  92 N13       30.04R VSB 1   WCI  22
$$

...OBSERVATIONS ACROSS THE CENTRAL AND SOUTHERN PLAINS...

CITY           SKY/WX    TMP DP  RH WIND       PRES   REMARKS
OMAHA          FLURRIES  38  30  73 N18G28    30.00R WCI  28
GRAND ISLAND   CLOUDY    41  31  67 NW22G33   30.10R
KANSAS CITY    CLOUDY    42  30  62 NW20G31   29.97R
WICHITA        MOSUNNY   62  31  31 N25G37    30.07R
DODGE CITY     SUNNY     62  22  21 NW26G41   30.15R
OKLAHOMA CITY  SUNNY     65  26  23 N22G31    30.13R
DALLAS         MOSUNNY   76  34  21 N23       30.06R
AMARILLO       SUNNY     60  13  15 N22G33    30.25F
$$




USA.gov is the U.S. government's official web portal to all federal, state and local government web resources and services.